Location: Newark
(44.1667°N, 8.2500°E)
Time: 23:58:24
(UTC+00:00)

S-56A Canister/Altair - Pass Details

Date: 13 December 2019
Orbit: 634 x 2498 km, 38.9° (Epoch: 24 January)

Event Time Altitude Azimuth Distance (km) Brightness Sun altitude
Rises 10:17:50 0° 253° (WSW) 5,704 12.0 21.2°
Reaches altitude 10° 10:21:19 10° 251° (WSW) 4,862 11.7 21.3°
Maximum altitude 10:35:43 70° 172° (S) 2,611 11.0 21.9°
Drops below altitude 10° 10:50:03 10° 93° (E) 4,846 11.8 22.3°
Sets 10:53:31 0° 91° (E) 5,685 12.1 22.4°
